User: anonymous   Login
Location: Alphaba - Cockrum - Ingrams Mill Volunteer Fire Department Station 2
(34.7915°N, 89.7598°W)
Time: 09:57:05
(UTC+00:00)
Language:

Okean 1-7 Rocket - Orbit

View from above orbital plane
View from above orbital plane
View from above satellite
View from above satellite

Ground track
Ground track

The orbit is defined by the following mean orbital elements,

1 23318U          26041.62679184 +.00000000 +00000-0 +50997-4 0 00000
2 23318  82.5409 115.4717 0021839 324.7035  35.2731 14.80872275    05
Epoch (UTC): 10 February 2026 15:02:34
Eccentricity: 0.0021839
inclination: 82.5409°
perigee height: 611 km
apogee height: 642 km
right ascension of ascending node: 115.4717°
argument of perigee: 324.7035°
revolutions per day: 14.80872275
mean anomaly at epoch: 35.2731°

The dashed part of the orbit path shows where the satellite is in the earth's shadow,  

DLR